This demonstration page uses our WeatherBlox Daily Observations layout. Learn more.

Left ArrowRight Arrow

Hourly Observations for May 11, 2021

Temp ( °F °C ) Dew Point ( °F °C ) Humidity (%) Winds ( mph kmh ) Pressure ( in mb ) Visibility ( mi km ) Precip ( " mm )
12:15 am 00:15 Cloudy with Rain 48 8.9 45 7.3 90 90 NNW 6 9 30.19 1023 7 11 0.02 0.51
12:35 am 00:35 Cloudy with Rain 47 8.6 46 7.5 93 93 N 6 9 30.19 1022 10 16 0.02 0.51
12:55 am 00:55 Cloudy with Light Rain 47 8.5 46 7.5 94 94 NNE 6 9 30.19 1022 10 16 0.03 0.76
1:15 am 01:15 Cloudy 47 8.5 46 7.6 94 94 NE 5 7 30.19 1022 10 16 0.00 0.00
1:35 am 01:35 Cloudy 47 8.5 46 7.7 95 95 NNE 6 9 30.20 1023 10 16 0.00 0.00
1:55 am 01:55 Cloudy with Drizzle 47 8.6 46 7.5 93 93 NNE 7 11 30.20 1023 10 16 0.00 0.00
2:15 am 02:15 Cloudy with Light Rain 47 8.5 45 7.2 92 92 N 6 9 30.21 1023 10 16 0.00 0.00
2:35 am 02:35 Cloudy with Heavy Rain 46 7.8 43 6 89 89 N 7 11 30.21 1023 7 11 0.02 0.51
2:55 am 02:55 Cloudy with Rain 45 7.3 41 5.1 86 86 NNE 9 15 30.21 1023 10 16 0.03 0.76
3:15 am 03:15 Cloudy with Light Rain 45 7 41 5 87 87 N 7 11 30.21 1023 10 16 0.01 0.25
3:35 am 03:35 Cloudy with Light Rain 44 6.7 41 5.1 90 90 NNE 7 11 30.21 1023 10 16 0.02 0.51
3:55 am 03:55 Cloudy 44 6.5 41 4.8 89 89 NNE 8 13 30.21 1023 10 16 0.02 0.51
4:15 am 04:15 Cloudy 44 6.5 40 4.6 88 88 N 6 9 30.22 1023 10 16 0.00 0.00
4:35 am 04:35 Cloudy 44 6.5 40 4.4 87 87 N 6 9 30.23 1024 10 16 0.00 0.00
4:55 am 04:55 Cloudy 44 6.5 37 2.9 78 78 N 7 11 30.23 1024 10 16 0.00 0.00
5:15 am 05:15 Cloudy 43 6.2 35 1.9 74 74 N 6 9 30.25 1025 10 16 0.00 0.00
5:40 am 05:40 Cloudy 43 6 35 1.6 74 74 N 6 9 30.26 1025 10 16 0.00 0.00
5:55 am 05:55 Cloudy with Light Rain 43 6 35 1.7 74 74 NNE 5 7 30.26 1025 10 16 0.00 0.00
6:15 am 06:15 Cloudy 43 5.9 35 1.8 75 75 NNE 5 7 30.27 1025 10 16 0.00 0.00
6:35 am 06:35 Cloudy 42 5.7 36 2.1 78 78 NNE 7 11 30.27 1025 10 16 0.00 0.00
6:55 am 06:55 Cloudy 42 5.6 35 1.7 76 76 NNE 8 13 30.27 1025 10 16 0.00 0.00
7:15 am 07:15 Cloudy 42 5.5 35 1.6 76 76 NNE 8 13 30.28 1025 10 16 0.00 0.00
7:35 am 07:35 Cloudy 42 5.5 35 1.4 75 75 NNE 6 9 30.29 1026 10 16 0.00 0.00
7:55 am 07:55 Cloudy 42 5.6 35 1.6 76 76 N 7 11 30.31 1026 10 16 0.00 0.00
8:15 am 08:15 Cloudy 42 5.8 34 1.3 73 73 NE 7 11 30.31 1026 10 16 0.00 0.00
8:35 am 08:35 Cloudy 43 6 34 1 71 71 NNE 8 13 30.31 1026 10 16 0.00 0.00
8:55 am 08:55 Mostly Cloudy 44 6.4 35 1.8 73 73 NNE 10 17 30.30 1026 10 16 0.00 0.00
9:15 am 09:15 Partly Cloudy 44 6.6 35 1.5 70 70 NE 9 15 30.31 1027 10 16 0.00 0.00
9:35 am 09:35 Partly Cloudy 45 7.3 35 1.6 67 67 NE 9 15 30.32 1027 10 16 0.00 0.00
9:55 am 09:55 Partly Cloudy 46 7.7 34 1.2 64 64 NNE 13 20 30.33 1027 10 16 0.00 0.00
10:15 am 10:15 Partly Cloudy 47 8.4 35 1.9 64 64 NE 12 19 30.34 1027 10 16 0.00 0.00
10:35 am 10:35 Partly Cloudy 47 8.5 34 1.2 60 60 NE 13 20 30.34 1027 10 16 0.00 0.00
10:55 am 10:55 Sunny 49 9.2 35 1.8 60 60 NE 14 22 30.33 1027 10 16 0.00 0.00
11:15 am 11:15 Sunny 49 9.5 34 1.2 57 57 NNE 8 13 30.33 1027 10 16 0.00 0.00
11:35 am 11:35 Sunny 50 9.8 36 2.4 60 60 NE 10 17 30.33 1027 10 16 0.00 0.00
11:55 am 11:55 Sunny 50 10.1 35 1.8 57 57 NNE 10 17 30.33 1027 10 16 0.00 0.00
12:15 pm 12:15 Sunny 51 10.5 36 2.3 57 57 NNE 9 15 30.33 1027 10 16 0.00 0.00
12:35 pm 12:35 Sunny 51 10.7 36 2.1 56 56 NE 10 17 30.34 1027 10 16 0.00 0.00
12:55 pm 12:55 Partly Cloudy 52 11 36 2.1 55 55 NNE 10 17 30.34 1027 10 16 0.00 0.00
1:15 pm 13:15 Partly Cloudy 51 10.8 35 1.8 54 54 NNE 13 20 30.34 1027 10 16 0.00 0.00
1:35 pm 13:35 Partly Cloudy 52 11.2 33 0.8 49 49 N 10 17 30.33 1027 10 16 0.00 0.00
1:55 pm 13:55 Partly Cloudy 52 11.2 34 1.3 51 51 NE 14 22 30.32 1027 10 16 0.00 0.00
2:15 pm 14:15 Partly Cloudy 53 11.4 34 0.9 49 49 NNE 8 13 30.32 1027 10 16 0.00 0.00
2:35 pm 14:35 Partly Cloudy 53 11.6 35 1.8 51 51 N 12 19 30.31 1026 10 16 0.00 0.00
2:50 pm 14:50 Mostly Cloudy 53 11.5 36 2.2 53 53 NNE 13 20 30.31 1026 10 16 0.00 0.00
3:15 pm 15:15 Partly Cloudy 54 12 36 2.4 52 52 NNW 14 22 30.29 1026 10 16 0.00 0.00
3:35 pm 15:35 Partly Cloudy 54 12 36 2.2 51 51 NNE 15 24 30.29 1026 10 16 0.00 0.00
3:55 pm 15:55 Partly Cloudy 54 12.2 37 2.5 52 52 NNE 14 22 30.29 1026 10 16 0.00 0.00
4:15 pm 16:15 Partly Cloudy 54 12 35 1.8 50 50 NNE 10 17 30.28 1026 10 16 0.00 0.00
4:35 pm 16:35 Mostly Cloudy 53 11.5 35 1.9 52 52 NNE 15 24 30.29 1026 10 16 0.00 0.00
4:55 pm 16:55 Partly Cloudy 54 12 35 1.7 50 50 N 16 26 30.28 1026 10 16 0.00 0.00
5:15 pm 17:15 Partly Cloudy 54 12 33 0.6 46 46 NNW 12 19 30.28 1026 10 16 0.00 0.00
5:35 pm 17:35 Partly Cloudy 54 12.2 35 1.4 48 48 N 12 19 30.29 1026 10 16 0.00 0.00
5:55 pm 17:55 Partly Cloudy 53 11.8 33 0.3 45 45 NNE 9 15 30.29 1026 10 16 0.00 0.00
6:15 pm 18:15 Partly Cloudy 53 11.6 33 0.3 46 46 NNE 12 19 30.29 1026 10 16 0.00 0.00
6:35 pm 18:35 Sunny 53 11.5 33 0.5 47 47 N 14 22 30.29 1026 10 16 0.00 0.00
6:55 pm 18:55 Sunny 53 11.4 33 0.5 47 47 N 14 22 30.29 1026 10 16 0.00 0.00
7:15 pm 19:15 Sunny 52 11.1 33 0.8 49 49 N 13 20 30.30 1026 10 16 0.00 0.00
7:35 pm 19:35 Sunny 52 11 33 0.4 48 48 N 12 19 30.31 1026 10 16 0.00 0.00
7:55 pm 19:55 Sunny 51 10.5 32 0.2 49 49 N 10 17 30.32 1027 10 16 0.00 0.00
8:15 pm 20:15 Sunny 50 10 34 1.3 55 55 N 8 13 30.32 1027 10 16 0.00 0.00
8:35 pm 20:35 Sunny 49 9.5 34 1.3 57 57 N 8 13 30.32 1027 10 16 0.00 0.00
8:55 pm 20:55 Clear 48 9 34 0.9 57 57 N 9 15 30.34 1028 10 16 0.00 0.00
9:15 pm 21:15 Clear 47 8.5 34 1.1 60 60 N 8 13 30.36 1028 10 16 0.00 0.00
9:35 pm 21:35 Clear 46 8 34 1 62 62 N 8 13 30.37 1028 10 16 0.00 0.00
9:55 pm 21:55 Clear 46 7.6 34 1.1 64 64 N 7 11 30.38 1029 10 16 0.00 0.00
10:15 pm 22:15 Clear 45 7.1 35 1.5 68 68 N 7 11 30.39 1029 10 16 0.00 0.00
10:35 pm 22:35 Clear 44 6.8 35 1.5 69 69 N 6 9 30.39 1029 10 16 0.00 0.00
10:55 pm 22:55 Clear 44 6.5 34 1.1 69 69 N 6 9 30.40 1030 10 16 0.00 0.00
11:15 pm 23:15 Clear 43 6 34 1.3 72 72 N 6 9 30.41 1030 10 16 0.00 0.00
11:35 pm 23:35 Clear 42 5.7 34 1.1 73 73 N 7 11 30.41 1030 10 16 0.00 0.00
11:55 pm 23:55 Clear 42 5.6 34 1 73 73 N 7 11 30.41 1030 10 16 0.00 0.00

Powered by AerisWeather